User: anonymous   Login
Location: Vale
(35.4830°N, 81.3830°W)
Time: 02:39:28
(UTC-04:00)
Language:

SAR-Lupe-1 - Orbit

View from above orbital plane
View from above orbital plane
View from above satellite
View from above satellite

Ground track
Ground track

The orbit data is extracted from the following two-line orbital elements,

1 29658U 06060A   18112.92073586 0.00001300  00000-0  48220-4 0    02
2 29658  98.1208 196.7935 0005000 321.9104  38.0895 15.27622804    05
Epoch (UTC): 22 April 2018 22:05:51
Eccentricity: 0.0005000
inclination: 98.1208°
perigee height: 479 km
apogee height: 486 km
right ascension of ascending node: 196.7935°
argument of perigee: 321.9104°
revolutions per day: 15.27622804
mean anomaly at epoch: 38.0895°
orbit number at epoch: 0

The dashed part of the orbit path shows where the satellite is in the earth's shadow,  

DLR